Regional Weather Roundup
Issued by NWS Little Rock, AR

Home | Current Version | Previous Version | Text Only | Print | Product List | Glossary On
Versions: 1 2 3 4 5 6 7 8 9 10 11 12 13 14 15 16 17 18 19 20 21 22 23 24 25 26 27 28 29 30 31 32 33 34 35 36 37 38 39 40 41 42 43 44 45 46 47
000
ASUS44 KLZK 282205
RWRLZK

WEATHER ROUNDUP FOR ARKANSAS
NATIONAL WEATHER SERVICE LITTLE ROCK AR
400 PM CST FRI NOV 28 2014

NOTE: "FAIR" INDICATES FEW OR NO CLOUDS BELOW 12,000 FEET WITH NO
SIGNIFICANT WEATHER AND/OR OBSTRUCTIONS TO VISIBILITY.

ARZ001-003-010-029-282300-
NORTHWEST ARKANSAS

CITY           SKY/WX    TMP DP  RH WIND       PRES   REMARKS
FAYETTEVILLE   SUNNY     59  37  44 S18G25    29.96F
FORT SMITH     SUNNY     65  37  35 S12       30.00F
HARRISON       CLEAR     59  34  39 S13G25    29.98F
BENTONVILLE    CLEAR     61  36  39 S14G20    29.95F
ROGERS         CLEAR     59  36  42 S15G22    29.95F
SILOAM SPGS    SUNNY     61  37  41 S16G26    29.96F
HIGHFILL       SUNNY     59  37  44 S17       29.93F
$$

ARZ004-005-016-282300-
NORTH CENTRAL ARKANSAS

CITY           SKY/WX    TMP DP  RH WIND       PRES   REMARKS
BATESVILLE     CLEAR     54  32  43 S9        30.09S
FLIPPIN        CLEAR     57  34  41 S7G17     30.01F
MTN HOME       CLEAR     56  34  43 S13G21    30.00F
$$

ARZ040-041-282300-
WEST CENTRAL ARKANSAS

CITY           SKY/WX    TMP DP  RH WIND       PRES   REMARKS
MENA           SUNNY     61  41  48 S7        30.06F
MOUNT IDA      SUNNY     59  38  45 VRB3      30.06F
$$

ARZ009-017-025-026-028-282300-
NORTHEAST ARKANSAS

CITY           SKY/WX    TMP DP  RH WIND       PRES   REMARKS
CORNING        FAIR      50  36  57 S18G28    30.09F
JONESBORO      CLEAR     52  32  46 S17       30.10F
NEWPORT        CLEAR     53  36  52 S20       30.11F
WALNUT RIDGE   CLEAR     52  34  50 S17G23    30.08F
BLYTHEVILLE    CLEAR     52  31  44 S13       30.13F
$$

ARZ022-023-033-042-044-282300-
CENTRAL ARKANSAS

CITY           SKY/WX    TMP DP  RH WIND       PRES   REMARKS
LITTLE ROCK    CLEAR     59  33  37 S10       30.11F
N LITTLE ROCK  CLEAR     57  37  47 S10G18    30.11F
JACKSONVILLE   CLEAR     58  35  41 S10       30.11F
SEARCY         CLEAR     54  36  50 S13       30.12F
HOT SPRINGS    SUNNY     59  37  44 S14       30.10F
RUSSELLVILLE   CLEAR     60  36  40 S6        30.06S
CLINTON        FAIR      55  36  47 S6        30.09S
$$

ARZ036-282300-
EAST ARKANSAS

CITY           SKY/WX    TMP DP  RH WIND       PRES   REMARKS
WEST MEMPHIS   CLEAR     52  29  41 S22       30.16F
$$

ARZ050-053-066-070-073-282300-
SOUTHWEST ARKANSAS

CITY           SKY/WX    TMP DP  RH WIND       PRES   REMARKS
ARKADELPHIA    FAIR      61  40  45 S9        30.13F
CAMDEN         SUNNY     63  32  31 MISG      30.15F
TEXARKANA      SUNNY     63  42  46 S12       30.11F
EL DORADO      SUNNY     61  36  39 S10       30.16F
DE QUEEN       SUNNY     64  42  44 S7        30.07F
$$

ARZ056-057-069-282300-
SOUTHEAST ARKANSAS

CITY           SKY/WX    TMP DP  RH WIND       PRES   REMARKS
PINE BLUFF     CLEAR     58  34  40 S12       30.15F
STUTTGART      CLEAR     55  36  47 S14       30.14F
MONTICELLO     CLEAR     58  33  39 S10       30.17F

$$




USA.gov is the U.S. government's official web portal to all federal, state and local government web resources and services.